Preview of NWS' New Version of Forecast
This preview is not operational and should not be used for support decisions.

Regional Weather Roundup (RWR)

Issued by National Weather Service (NWS)

                            
000
ASUS44 KMEG 212200
RWRTN 
TENNESSEE HOURLY STATE WEATHER ROUNDUP
NATIONAL WEATHER SERVICE MEMPHIS TN
400 PM CST THU FEB 21 2019

TNZ002-004-019-021-049-052-054-088>092-212300-
WEST TENNESSEE
  
CITY           SKY/WX    TMP DP  RH WIND       PRES   REMARKS
MEMPHIS INTL   RAIN      46  42  86 E9        30.15R FOG              
NWS MEMPHIS      N/A     45 N/A N/A MISG        N/A                   
JACKSON        CLOUDY    48  41  76 NE9       30.13S                  
DYERSBURG      CLOUDY    47  39  74 NE12      30.15R                  
$$

TNZ008-025-027-028-033-062-065-066-212300-
NORTH MIDDLE TENNESSEE
  
CITY           SKY/WX    TMP DP  RH WIND       PRES   REMARKS
NASHVILLE      LGT RAIN  50  40  68 N8        30.19R                  
CLARKSVILLE    FAIR      49  36  61 NE6       30.18F                  
SMYRNA         LGT RAIN  49  45  86 NE5       30.19S                  
CROSSVILLE     CLOUDY    46  43  89 NE6       30.15S                  
$$

TNZ061-075-076-078-094-096-097-212300-
SOUTH MIDDLE TENNESSEE
  
CITY           SKY/WX    TMP DP  RH WIND       PRES   REMARKS
FAYETTEVILLE   CLOUDY    48  48 100 N9G18     30.13R FOG              
$$

TNZ017-018-042-046-047-212300-
NORTHEAST TENNESSEE
  
CITY           SKY/WX    TMP DP  RH WIND       PRES   REMARKS
TRI CITIES     CLOUDY    54  52  93 CALM      30.16R                  
$$

TNZ012-013-036-069-073-074-212300-
CENTRAL EAST TENNESSEE
  
CITY           SKY/WX    TMP DP  RH WIND       PRES   REMARKS
KNOXVILLE      LGT RAIN  50  47  89 N8        30.14R                  
OAK RIDGE      CLOUDY    51  48  89 CALM      30.18R                  
$$

TNZ083-085-099-212300-
SOUTHEAST TENNESSEE
  
CITY           SKY/WX    TMP DP  RH WIND       PRES   REMARKS
CHATTANOOGA    LGT RAIN  52  49  89 N9        30.12F FOG              
$$

SKY/WX REPORTED AS FAIR MEANS FEW OR NO CLOUDS BELOW
12 THOUSAND FEET.